[[{"header":{"parameterUnit":"m.s-1","parameterCategory":1,"la1":30.2991,"la2":30.254,"lo1":-89.0895,"lo2":-89.0444,"dy":0.0017,"dx":0.0017,"nx":28,"ny":28,"refTime":"2023-08-13T09:00:00:Z","depth":0,"parameterNumber":2,"parameterNumberName":"U-component_of_WINDS"},"data":[0,0,0,0,0,0,0,0,0,0,0,0,0,0,0,0,0,0,0,0,0,0,0,0,0,0,0,0,0,0,0,0,0,0,0,0,0,0,0,0,0,0,0,0,0,0,0,0,0,0,0,0,0,0,0,0,0,0,0.7295,0.7295,0,0.737,0.7371,0.7372,0.7392,0.7392,0.7392,0.7391,0.7468,0.747,0.7472,0,0,0,0,0,0,0,0,0,0,0,0,0,0.7167,0.7169,0.7295,0.7296,0.7296,0.737,0.7371,0.7372,0.7393,0.7392,0.7391,0.7391,0.7467,0.747,0.7473,0,0,0,0,0,0,0,0,0,0,0,0,0,0.723,0.717,0.7294,0.7316,0.7318,0.737,0.7371,0.7372,0.7393,0.7392,0.7391,0.7391,0.7466,0.7469,0.7473,0.7509,0,0,0.7484,0.7486,0,0,0,0,0,0,0,0,0.7226,0.7235,0.7312,0.7314,0.7317,0.7371,0.7354,0.7418,0.7393,0.7364,0.7391,0.739,0.7436,0.7442,0.7458,0.7512,0.7515,0.7484,0.7487,0.7488,0.7489,0,0,0,0,0,0,0,0.7222,0.7232,0.7324,0.7313,0.7316,0.7321,0.7329,0.7366,0.7403,0.7367,0.7368,0.7377,0.7437,0.7454,0.746,0.7517,0.7484,0.7488,0.749,0.7491,0.7603,0.7603,0,0,0,0,0,0,0.7214,0.7228,0.7322,0.7327,0.7269,0.7324,0.7333,0.7355,0.7403,0.7409,0.7378,0.7378,0.7448,0.7455,0.7462,0.7506,0.7488,0.7492,0.7494,0.7602,0.7603,0.7604,0,0,0,0,0,0,0.7211,0.7222,0.7319,0.7278,0.729,0.7326,0.7351,0.7356,0.7373,0.7411,0.7417,0.7388,0.7448,0.7457,0.7497,0.7509,0.7493,0.7497,0.7601,0.7602,0.7603,0.7595,0,0,0,0,0,0,0.7208,0.7221,0.7236,0.7278,0.7293,0.7353,0.7351,0.7358,0.7379,0.738,0.7422,0.7428,0.7448,0.7491,0.75,0.7514,0.7499,0.76,0.7602,0.7603,0.7594,0.7595,0.7597,0,0,0,0,0,0.7203,0.723,0.7236,0.7247,0.7311,0.7353,0.7362,0.7384,0.738,0.7395,0.7419,0.7427,0.7506,0.7495,0.7506,0.752,0.7599,0.7601,0.7603,0.7593,0.7595,0.7597,0,0,0,0,0,0,0.7188,0.7236,0.7243,0.7285,0.7315,0.7357,0.7375,0.7385,0.7416,0.7416,0.7442,0.7451,0.7489,0.7509,0.7495,0.7557,0.7553,0.7557,0.7542,0.7544,0.7545,0.754,0.7503,0,0,0,0,0,0.719,0.722,0.7261,0.7293,0.7308,0.7339,0.7358,0.7373,0.7405,0.7417,0.7444,0.7474,0.7506,0.7526,0.7558,0.7597,0.7606,0.7613,0.7614,0.7615,0.7618,0.7639,0.7642,0.7609,0.7609,0.7609,0,0,0.7193,0.7223,0.7241,0.7291,0.7316,0.7346,0.735,0.7382,0.7404,0.7422,0.7461,0.7482,0.7517,0.7556,0.7575,0.7574,0.7629,0.7617,0.7617,0.762,0.7641,0.7644,0.7647,0.7611,0.761,0.761,0,0,0.7215,0.7241,0.7271,0.7296,0.7334,0.7354,0.7361,0.7401,0.7416,0.7455,0.7469,0.7496,0.755,0.7574,0.7594,0.7624,0.7632,0.7633,0.764,0.766,0.7663,0.7665,0.7675,0.7679,0.7636,0.7636,0.7636,0,0.7215,0.7262,0.7285,0.7317,0.7338,0.7356,0.7386,0.7408,0.7454,0.7468,0.7466,0.7534,0.7559,0.7604,0.7611,0.7627,0.7635,0.7629,0.7661,0.7663,0.7666,0.7676,0.7679,0.7636,0.7636,0.7636,0.7636,0,0.7259,0.7291,0.7311,0.7354,0.7378,0.7408,0.7436,0.7457,0.7469,0.7489,0.7529,0.7559,0.7596,0.7608,0.7621,0.7655,0.7653,0.7656,0.7652,0.7668,0.7678,0.7682,0.7636,0.7636,0.7636,0.7636,0,0,0.7273,0.733,0.7336,0.7356,0.7398,0.7423,0.7454,0.7491,0.7508,0.7539,0.7564,0.761,0.7612,0.7634,0.765,0.7668,0.7688,0.7668,0.7669,0.767,0.7726,0.7723,0.7727,0.7694,0.7695,0.7696,0.7723,0,0.73,0.7356,0.7378,0.7424,0.7453,0.747,0.7497,0.7525,0.7545,0.7572,0.7594,0.7625,0.7627,0.764,0.7658,0.7682,0.77,0.768,0.7718,0.7719,0.7708,0.7732,0.773,0.7754,0.7727,0.7728,0.7728,0,0.7338,0.737,0.7418,0.7456,0.7469,0.7493,0.7528,0.7554,0.7587,0.7599,0.7624,0.7638,0.767,0.7665,0.7709,0.7695,0.7712,0.7725,0.7727,0.7731,0.7724,0.7736,0.7762,0.7765,0.7734,0.7734,0.7733,0,0.7343,0.7397,0.7433,0.7449,0.7495,0.7511,0.7531,0.7563,0.7583,0.7613,0.7626,0.766,0.7678,0.7703,0.7726,0.772,0.7767,0.7764,0.7778,0.7778,0.7787,0.7786,0.7815,0.7799,0.7799,0.7799,0.7799,0,0.737,0.7399,0.7436,0.7458,0.749,0.7515,0.7546,0.7567,0.7594,0.762,0.7637,0.766,0.7689,0.7716,0.7733,0.7767,0.7775,0.7786,0.779,0.7784,0.7782,0.7795,0.7793,0.78,0.78,0.7799,0.7799,0,0.738,0.7406,0.7446,0.7486,0.7497,0.7519,0.7553,0.7574,0.7594,0.7627,0.7635,0.7667,0.77,0.7724,0.7767,0.7779,0.7814,0.7818,0.7803,0.7805,0.7817,0.7815,0.7855,0.7861,0.7841,0.7841,0.7841,0,0.7395,0.7418,0.746,0.7479,0.7499,0.7528,0.7549,0.7574,0.7595,0.7633,0.7649,0.7683,0.7711,0.7762,0.7789,0.7821,0.7826,0.7838,0.7831,0.7824,0.7825,0.7824,0.7826,0.7838,0.7839,0.7839,0.7839,0,0.7419,0.7431,0.7461,0.7495,0.7519,0.7547,0.7575,0.7589,0.7619,0.7641,0.7675,0.7697,0.774,0.7773,0.7807,0.7827,0.7837,0.7841,0.7845,0.7839,0.7829,0.7834,0.7804,0.784,0.7839,0.7839,0.7839,0.7839,0.7432,0.7453,0.7485,0.7518,0.7541,0.7567,0.7589,0.7612,0.7641,0.7678,0.7691,0.7725,0.7756,0.7804,0.7823,0.785,0.785,0.7857,0.7859,0.786,0.7859,0.7825,0.7856,0.7856,0.7856,0.7856,0.7856,0,0.7456,0.7478,0.7507,0.7546,0.7571,0.758,0.7611,0.7631,0.7661,0.7689,0.7717,0.7755,0.7787,0.7815,0.7848,0.7864,0.787,0.7872,0.7871,0.7875,0.7858,0.785,0.7867,0.7867,0.7867,0.7867,0.7867,0.7867,0.7471,0.7506,0.7522,0.7568,0.759,0.7624,0.7641,0.7664,0.7687,0.7729,0.7755,0.7774,0.7802,0.7837,0.7866,0.7874,0.7885,0.7886,0.7894,0.7877,0.7876,0.7875,0.7868,0.7888,0.7888,0.7909,0.7909,0.7909]},{"header":{"parameterUnit":"m.s-1","parameterCategory":1,"la1":30.2991,"la2":30.254,"lo1":-89.0895,"lo2":-89.0444,"dy":0.0017,"dx":0.0017,"nx":28,"ny":28,"refTime":"2023-08-13T09:00:00:Z","depth":0,"parameterNumber":3,"parameterNumberName":"V-component_of_WINDS"},"data":[0,0,0,0,0,0,0,0,0,0,0,0,0,0,0,0,0,0,0,0,0,0,0,0,0,0,0,0,0,0,0,0,0,0,0,0,0,0,0,0,0,0,0,0,0,0,0,0,0,0,0,0,0,0,0,0,0,0,5.6568,5.6567,0,5.651,5.651,5.6509,5.6424,5.6423,5.6421,5.642,5.636,5.636,5.636,0,0,0,0,0,0,0,0,0,0,0,0,0,5.6604,5.6604,5.6568,5.6567,5.6566,5.651,5.651,5.6509,5.6425,5.6423,5.6421,5.6419,5.6361,5.636,5.636,0,0,0,0,0,0,0,0,0,0,0,0,0,5.6572,5.6604,5.6568,5.6518,5.6513,5.6511,5.651,5.6509,5.6425,5.6423,5.6421,5.6419,5.6361,5.636,5.636,5.6402,0,0,5.6359,5.6359,0,0,0,0,0,0,0,0,5.6574,5.657,5.6526,5.6521,5.6515,5.6472,5.65,5.6473,5.6426,5.6458,5.642,5.6417,5.6399,5.6396,5.639,5.64,5.6397,5.6359,5.6359,5.6359,5.6359,0,0,0,0,0,0,0,5.6576,5.6572,5.6545,5.6525,5.6519,5.6498,5.6491,5.6495,5.6442,5.6455,5.6449,5.6443,5.6396,5.639,5.6388,5.6396,5.6359,5.6359,5.6359,5.6358,5.6437,5.6439,0,0,0,0,0,0,5.6586,5.6575,5.6547,5.6543,5.654,5.6499,5.6491,5.6488,5.6442,5.6432,5.6445,5.644,5.6392,5.6388,5.6385,5.6431,5.6359,5.6358,5.6358,5.6435,5.6437,5.644,0,0,0,0,0,0,5.6587,5.6584,5.6549,5.6557,5.6551,5.6501,5.6498,5.6488,5.6482,5.6434,5.6424,5.6449,5.639,5.6386,5.6399,5.6428,5.6358,5.6358,5.6432,5.6435,5.6439,5.6523,0,0,0,0,0,0,5.6588,5.6585,5.6601,5.6558,5.6551,5.6564,5.65,5.6489,5.6482,5.6474,5.6435,5.6426,5.6388,5.64,5.6398,5.6426,5.6358,5.6429,5.6433,5.6437,5.6518,5.6529,5.6539,0,0,0,0,0,5.659,5.6627,5.6602,5.6599,5.657,5.6566,5.6562,5.6517,5.6485,5.65,5.6469,5.6428,5.6425,5.6402,5.6399,5.6428,5.6427,5.6432,5.6437,5.6513,5.6527,5.6539,0,0,0,0,0,0,5.6674,5.662,5.6592,5.6617,5.6596,5.6552,5.6569,5.6533,5.6521,5.6514,5.6459,5.6451,5.6471,5.645,5.6425,5.6466,5.642,5.6425,5.6478,5.6491,5.6502,5.6505,5.6357,0,0,0,0,0,5.6695,5.6697,5.665,5.6676,5.6667,5.6621,5.6617,5.6584,5.6561,5.6552,5.6522,5.65,5.6494,5.6492,5.6484,5.6515,5.6505,5.6533,5.6544,5.6553,5.6557,5.6571,5.6583,5.6457,5.6457,5.6456,0,0,5.6739,5.671,5.6714,5.6692,5.6672,5.6675,5.6614,5.6619,5.662,5.6552,5.6562,5.654,5.6512,5.6534,5.6542,5.6518,5.659,5.6559,5.6567,5.6566,5.6578,5.659,5.6601,5.646,5.6459,5.6459,0,0,5.682,5.6799,5.6818,5.68,5.6771,5.674,5.6745,5.6705,5.6688,5.6697,5.6646,5.6647,5.6638,5.662,5.661,5.6685,5.6646,5.6684,5.674,5.6754,5.6764,5.6773,5.6798,5.6808,5.6689,5.669,5.669,0,5.6878,5.688,5.6832,5.6841,5.6832,5.6772,5.679,5.6775,5.6745,5.674,5.6714,5.6701,5.6679,5.6695,5.6714,5.6708,5.6711,5.6688,5.6767,5.6775,5.6782,5.6806,5.6816,5.6694,5.6694,5.6693,5.6693,0,5.6953,5.6955,5.6973,5.6946,5.694,5.6954,5.6908,5.6907,5.6875,5.6847,5.6856,5.6827,5.6812,5.6814,5.6783,5.6826,5.6811,5.6777,5.6729,5.68,5.6821,5.683,5.6701,5.6699,5.6698,5.6697,0,0,5.7084,5.7031,5.7038,5.7025,5.6989,5.699,5.7001,5.6986,5.6986,5.6968,5.6975,5.6969,5.6936,5.6925,5.6892,5.6904,5.6964,5.6868,5.6866,5.6886,5.7009,5.7035,5.7046,5.6939,5.6941,5.6942,5.7011,0,5.7157,5.7172,5.713,5.7156,5.7156,5.71,5.7109,5.7088,5.7061,5.7058,5.7029,5.7025,5.6983,5.6976,5.6986,5.6955,5.6988,5.695,5.6944,5.6944,5.6952,5.7057,5.7085,5.7151,5.7019,5.702,5.7022,0,5.7244,5.7231,5.7257,5.7219,5.7218,5.7227,5.721,5.7208,5.7183,5.7162,5.715,5.7111,5.7118,5.7074,5.7083,5.7057,5.7053,5.7037,5.7039,5.7035,5.6987,5.7056,5.7171,5.7181,5.7034,5.7033,5.7032,0,5.7336,5.7324,5.7338,5.7329,5.7286,5.7293,5.7276,5.7248,5.7242,5.7228,5.7223,5.7209,5.7202,5.7192,5.715,5.7121,5.7163,5.7115,5.7146,5.7147,5.7156,5.7156,5.7271,5.7156,5.7155,5.7155,5.7155,0,5.7421,5.7439,5.7379,5.7387,5.7405,5.7357,5.7376,5.7353,5.7329,5.7331,5.7282,5.7285,5.723,5.7227,5.7195,5.7206,5.7203,5.7187,5.7178,5.7191,5.7193,5.7186,5.718,5.7158,5.7157,5.7157,5.7156,0,5.7526,5.7487,5.7498,5.7457,5.7447,5.7462,5.7426,5.7432,5.7403,5.7406,5.7405,5.7359,5.7353,5.731,5.7295,5.7273,5.7296,5.7278,5.7305,5.7299,5.7331,5.7328,5.7445,5.7458,5.7335,5.7337,5.7338,0,5.7583,5.7595,5.7555,5.7554,5.7538,5.7536,5.753,5.7483,5.7478,5.745,5.7459,5.745,5.7439,5.7432,5.7397,5.7384,5.7365,5.7407,5.7363,5.7376,5.7365,5.7364,5.7365,5.7416,5.7418,5.7419,5.742,0,5.7687,5.7667,5.766,5.7646,5.764,5.7627,5.761,5.7612,5.7559,5.7557,5.755,5.7542,5.7526,5.7517,5.7498,5.7479,5.7441,5.7435,5.7441,5.7454,5.7468,5.746,5.7329,5.7432,5.7431,5.743,5.7429,5.7429,5.7768,5.7777,5.775,5.7744,5.7727,5.7713,5.7716,5.7687,5.7681,5.7665,5.7637,5.7635,5.7609,5.758,5.7565,5.7561,5.7539,5.7548,5.755,5.7553,5.756,5.747,5.7558,5.7557,5.7557,5.7557,5.7556,0,5.7869,5.7849,5.7844,5.7823,5.7818,5.7783,5.7764,5.7761,5.776,5.7739,5.773,5.7722,5.7713,5.7678,5.7664,5.7668,5.765,5.7666,5.7665,5.7661,5.7581,5.7576,5.7681,5.7681,5.7681,5.7681,5.7681,5.7681,5.7921,5.7933,5.791,5.7912,5.7892,5.789,5.7881,5.7868,5.7851,5.7845,5.7837,5.7814,5.7787,5.7771,5.7761,5.7751,5.7747,5.7769,5.7753,5.7679,5.7667,5.7655,5.7651,5.7769,5.7769,5.7833,5.7834,5.7834]}]]